星链-6229 (STARLINK-6229 )

导读 | 星芒AI

STARLINK-6229 是 SpaceX Starlink 卫星互联网项目中的一颗低轨卫星,属于第62批发射的星链卫星群。该卫星部署在近地轨道,旨在为全球用户提供高速互联网服务。它采用先进的通信技术,支持宽带接入,并具备自动避障功能以确保轨道安全。作为星链计划的一部分,STARLINK-6229 有助于扩大网络覆盖范围,特别是在偏远和网络基础设施薄弱的地区。

基本信息
目录编号:
57093
目录名称:
STARLINK-6229
国际标识:
2023-088AX
轨道中心:
EARTH
卫星名称:
星链-6229
卫星全名:
星链-6229 (STARLINK-6229 )
卫星状态:
在轨 (已飞行865 天)
发射日期:
2023-06-22 UTC
国别 :
美国 (US)
星等 :
--
轨道信息
数据来源 国际轨道数据
星历时间: 2025-11-02T09:27:20+0800
1天前
查看轨道信息
半长轴: 6937.127km
偏心率: 0.0001391
轨道倾角: 43.004°
近地点辐角 266.368°
升交点赤经 67.732°
平近点角 93.701°
近地点: 558.027km
远地点: 559.957km
周期: 95.836分钟
每日圈数: 15.025651
详细信息
固有亮度:
5
最大亮度:
2.4
卫星平台:
Starlink v1.5
覆盖范围:
全球
运营商:
太空探索技术公司
运营商所在国:
美国
制造商(研发单位):
太空探索技术公司
制造商所在国:
美国
使用方式:
暂无
卫星简介
星链(Starlink)计划是由太空探索技术公司(SpaceX)提出的一个巨型低轨卫星互联网星座项目,计划在2019年至2024年间在太空搭建由约1.2万颗卫星组成的“星链”网络,其中1584颗将部署在地球上空550千米处的近地轨道,并从2020年开始工作。该卫星仍在工作。
2D轨道图
3D轨道图
轨道高度分析图
轨道倾角分析图
轨道综合分析图
查看轨道综合分析图